Flag for Cameroon Weather past 2 weeks in Bamenda, Cameroon

Now
79 °F

Partly cloudy.


Feels Like: 83 °F
Forecast: 59 / 82 °F
Wind: No wind

Location: Douala Obs.

Current Time: Apr 26, 2015 at 11:54:56 PM

Latest Report: Apr 26, 2015 at 11:00 PM


Visibility: 4 mi

Pressure: 29.89 "Hg

Humidity: 94%

Dew point: 77 °F

Location of BamendaLocation

Historic Weather in Bamenda — Graph

°F

Bamenda temperature yesterday

Maximum temperature yesterday: 91 °F (at 1:00 PM)
Minimum temperature yesterday: 77 °F (at 5:00 AM)
Average temperature yesterday: 83 °F

Past Weeks' High & Low Weather Summary

 TemperatureHumidityPressure
High93 °F (Apr 19, 1:00 PM)100% (Apr 12, 1:00 AM)30.04 "Hg (Apr 12, 1:00 AM)
Low63 °F (Apr 23, 6:00 AM)59% (Apr 16, 2:00 PM)29.74 "Hg (Apr 14, 4:00 PM)
Average83 °F83%29.85 "Hg
* Reported Apr 11 11:00 PM — Apr 26 11:00 PM, Bamenda, Weather by CustomWeather, © 2015

Note: Actual official high and low records may vary slightly from our data, if they occured in-between our weather recording intervals... More about our weather records

Advertising

Bamenda weather history for previous 24 hours

 ConditionsComfort  
Time TempWeatherWind HumidityBarometerVisibility
11:00 PM
Sun, Apr 26
79 °FPartly cloudy.No wind94%29.89 "Hg4 mi
10:00 PM79 °FPartly cloudy.No wind94%29.89 "HgN/A
9:00 PM79 °FPartly cloudy.5 mph94%29.86 "HgN/A
8:00 PM81 °FPartly cloudy.5 mph89%29.86 "HgN/A
7:00 PM84 °FPartly cloudy.No wind79%29.86 "HgN/A
6:00 PM88 °FBroken clouds.5 mph70%29.83 "HgN/A
5:00 PM90 °FBroken clouds.5 mph67%29.80 "HgN/A
4:00 PM90 °FBroken clouds.7 mph59%29.83 "HgN/A
3:00 PM90 °FBroken clouds.7 mph67%29.86 "HgN/A
2:00 PM88 °FBroken clouds.No wind66%29.89 "HgN/A
1:00 PM88 °FBroken clouds.5 mph66%29.92 "HgN/A
12:00 PM86 °FPartly sunny.5 mph66%29.95 "HgN/A
11:00 AM84 °FPartly sunny.7 mph79%29.95 "HgN/A
10:00 AM84 °FBroken clouds.5 mph74%29.95 "HgN/A
8:00 AM75 °FThunderstorms. Broken clouds.No wind94%29.95 "HgN/A
7:00 AM75 °FThunderstorms. Broken clouds.5 mph94%29.95 "Hg5 mi
5:00 AM75 °FThunderstorms. Partly cloudy.3 mph94%29.92 "Hg4 mi
4:00 AM75 °FThunderstorms. Partly cloudy.5 mph100%29.92 "Hg1 mi
1:00 AM79 °FPassing clouds.No wind94%29.92 "Hg5 mi
12:00 AM79 °FPassing clouds.No wind100%29.95 "HgN/A
Weather by CustomWeather, © 2015

See weather overviewHow to use our weather pages